SCP
0 0 0 0 0 0 0 0 0 0 0 0 0 0 0 0 0 0 0 -0 -0 -0 -0 -0 -0 0 0 0 0 0 0 0 0 0 0 0 0 0 0 0 0 0 0 0 0 0 0
0 0 0 0 0 0 0 0 0 0 0 0 0 0 0 0 0 0 0 -0 -0 -0 0 0 0 0 0 0 0 0 0 0 0 0 0 0 0 0 0 0 0 0 0 0 0 0 0
0 0 0 0 0 0 0 0 0 0 0 0 0 0 0 0 0 0 0 0 -0 0 0 0 0 0 0 0 0 0 0 0 0 0 0 0 0 0 0 0 0 0 0 0 0 0 0
0 0 0 0 0 0 0 0 0 0 0 0 0 0 0 0 0 0 0 -0 0 0 0 0 0 0 0 0 0 0 0 0 0 0 0 0 0 0 0 0 0 0 0 0 0 0 0
0 0 0 0 0 0 0 0 0 0 0 0 0 0 0 0 0 0 0 0 0 0 0 0 0 0 0 0 0 0 0 0 0 0 0 0 0 0 0 0 0 0 0 0 0 0 0
0 0 0 0 0 0 0 0 0 0 0 0 0 0 0 0 0 0 0 0 0 0 0 0 0 0 0 0 0 0 0 0 0 0 0 0 0 0 0 0 0 0 0 0 0 0 0
0 0 0 0 0 0 0 0 0 0 0 0 0 0 0 0 0 0 0 0 0 0 0 0 0 0 0 0 0 0 0 0 0 0 0 0 0 0 0 0 -0 0 0 0 0 0 0
0 0 0 0 0 0 0 0 0 0 0 0 0 0 0 0 0 0 0 0 0 0 0 0 0 0 0 0 0 0 0 0 0 0 0 0 0 0 0 0 0 0 0 0 0 0 0
0 0 0 0 0 0 0 0 0 0 0 0 0 0 0 0 0 0 0 0 0 0 0 0 0 0 0 0 0 0 0 0 0 0 0 0 0 0 0 0 0 0 0 0 0 0 0
0 0 0 0 0 0 0 0 0 0 0 0 0 0 0 0 0 0 0 0 0 0 0 0 0 0 0 0 0 0 0 0 0 0 0 0 0 0 0 0 0 0 0 0 0 0 0
0 0 0 0 0 0 0 0 0 0 0 0 0 0 0 0 0 0 0 0 0 0 0 0 0 0 0 0 0 0 0 0 0 0 0 0 0 0 0 0 0 0 0 0 0 0 0
0 0 0 0 0 0 0 0 0 0 0 0 0 0 0 0 0 0 0 0 0 0 0 0 0 0 0 0 0 0 0 0 0 0 0 0 0 0 0 0 0 0 0 0 0 0 0
0 0 0 0 0 0 0 0 0 0 0 0 0 0 0 0 0 0 0 0 0 0 0 0 0 0 0 0 0 0 0 0 0 0 0 0 0 0 0 0 0 0 0 0 0 0 0
0 0 0 0 0 0 0 0 0 0 0 0 0 0 0 0 0 0 0 0 0 0 0 0 0 0 0 0 0 0 0 0 0 0 0 0 0 0 0 0 0 0 0 0 0 0 0
0 0 0 0 0 0 0 0 0 0 0 0 0 0 0 0 0 0 0 0 0 0 0 0 0 0 0 0 0 0 0 0 0 0 0 0 0 0 0 0 0 0 0 0 0 0 0
0 0 0 0 0 0 0 0 0 0 0 0 0 0 0 0 0 0 0 0 0 0 0 0 0 0 0 0 0 0 0 0 0 0 0 0 0 0 0 0 0 0 0 0 0 0 0
0 0 0 0 0 0 0 0 0 0 0 0 0 0 0 0 0 0 0 0 0 0 0 0 0 0 0 0 0 0 0 0 0 0 0 0 0 0 0 0 0 0 0 0 0 0 0
0 0 0 0 0 0 0 0 0 0 0 0 0 0 0 0 0 0 0 0 0 0 0 0 0 0 0 0 0 0 0 0 0 0 0 0 0 0 0 0 0 0 0 0 0 0 0
0 0 0 0 0 0 0 0 0 0 0 0 0 0 0 0 0 0 0 0 0 0 0 0 0 0 0 0 0 0 0 0 0 0 0 0 0 0 0 0 0 0 0 0 0 0 0
0 0 0 0 0 0 0 0 0 0 0 0 0 0 0 0 0 0 0 0 0 0 0 0 0 0 0 0 0 0 0 0 0 0 0 0 0 0 0 0 0 0 0 0 0 0 0
0 0 0 0 0 0 0 0 0 0 0 0 0 0 0 0 0 0 0 0 0 0 0 0 0 0 0 0 0 0 0 0 0 0 0 0 0 0 0 0 0 0 0 0 0 0 0
0 0 0 0 0 0 0 0 0 0 0 0 0 0 0 0 0 0 0 0 0 0 0 0 0 0 0 0 0 0 0 0 0 0 0 0 0 0 0 0 0 0 0 0 0 0 0
0 0 0 0 0 0 0 0 0 0 0 0 0 0 0 0 0 0 0 0 0 0 0 0 0 0 0 0 0 0 0 0 0 0 0 0 0 0 0 0 0 0 0 0 0 0 0
0 0 0 0 0 0 0 0 0 0 0 0 0 0 0 0 0 0 0 0 0 0 0 0 0 0 0 0 0 0 0 0 0 0 0 0 0 0 0 0 0 0 0 0 -0 0 0
0 0 0 0 0 0 0 0 0 0 0 0 0 0 0 0 0 0 0 0 0 0 0 0 0 0 0 0 0 0 0 0 0 0 0 0 0 0 0 0 0 0 0 -0 -0 -0 -0
0 0 0 0 0 0 0 0 0 0 0 0 0 0 0 0 0 0 0 0 0 0 0 0 0 0 0 0 0 0 0 0 0 0 0 0 0 0 0 0 0 0 0 0 0 0 0
0 0 0 0 0 0 0 0 0 0 0 0 0 0 0 0 0 0 0 0 0 0 0 0 0 0 0 0 0 0 0 0 0 0 0 0 0 0 0 0 0 0 0 0 0 0 -0
0 0 0 0 0 0 0 0 0 0 0 0 0 0 0 0 0 0 0 0 0 0 0 0 0 0 0 0 0 0 0 0 0 0 0 0 0 0 0 0 0 0 0 0 0 0 0
0 0 0 0 0 0 0 0 0 0 0 0 0 0 0 0 0 0 0 0 0 0 0 0 0 0 0 0 0 0 0 0 0 0 0 0 0 0 0 0 0 0 0 0 0 0 0
Wind_Speed_500mb
12 18 14 11 11 13 15 19 22 24 28 31 31 30 27 27 26 24 24 24 23 21 20 21 15 10 7 10 11 13 8 4 5 13 11 13 18 20 15 14 23 27 33 40 39 37 46
21 6 7 8 14 17 18 20 24 28 28 32 29 28 27 24 24 24 23 22 21 21 19 16 12 10 7 13 12 9 6 5 7 13 16 16 11 17 13 14 19 11 21 31 36 43 47
12 4 6 7 10 18 15 22 22 27 30 32 30 26 25 24 24 24 23 21 16 16 14 11 7 10 11 5 6 6 6 7 9 13 11 17 14 13 6 13 19 24 30 32 39 47 34
6 3 10 13 15 19 22 21 25 28 29 31 29 26 24 25 24 24 24 21 15 9 8 3 5 7 6 8 7 7 8 8 9 10 12 12 17 11 13 11 10 12 20 17 8 5 30
7 7 12 20 19 22 15 24 24 28 29 31 25 25 24 25 22 23 23 16 10 6 4 6 7 6 2 3 1 6 11 5 6 9 10 7 10 15 9 12 15 18 19 25 23 13 13
11 11 12 13 14 22 19 20 24 27 32 33 26 25 25 27 24 22 18 7 3 4 7 7 3 7 4 2 3 5 6 9 5 12 9 10 11 14 14 17 16 18 24 24 23 5 12
8 15 15 11 17 19 14 21 26 28 31 31 26 25 26 25 22 18 11 3 2 3 4 5 2 6 1 4 3 2 5 4 8 12 12 16 14 19 18 26 32 32 26 31 32 30 22
14 14 11 13 18 17 16 17 24 26 30 30 27 24 25 23 16 16 7 5 3 4 3 3 1 3 6 9 6 6 7 8 13 16 9 10 24 21 19 13 20 25 30 34 34 21 19
9 11 15 19 19 22 23 22 25 28 30 26 26 25 24 20 10 14 15 11 6 5 5 2 1 2 2 0 4 5 6 7 17 18 20 24 3 4 5 13 17 23 27 30 33 37 33
15 12 16 16 18 16 19 19 25 28 26 26 26 25 21 17 4 13 10 12 6 7 4 6 5 2 4 4 6 4 5 5 6 13 11 20 9 10 19 24 20 27 20 25 28 20 11
20 17 22 15 24 27 25 26 28 23 26 27 27 24 18 12 7 9 10 6 6 5 7 8 5 3 8 7 5 3 5 4 14 8 6 4 6 10 14 14 7 9 9 13 18 22 25
17 17 17 11 14 17 14 19 22 21 24 26 29 23 14 10 13 14 7 5 5 1 9 2 5 11 6 2 3 7 2 4 7 11 18 34 23 12 19 7 15 5 13 15 13 13 13
16 15 12 11 14 16 15 17 23 23 26 28 31 18 11 15 13 9 4 4 3 7 6 7 7 12 14 9 3 8 5 4 9 10 10 8 23 6 9 13 17 15 11 6 10 8 11
21 20 14 13 12 16 15 16 22 23 26 27 26 7 12 17 13 8 5 2 7 3 1 7 6 12 3 14 4 10 6 11 16 14 13 12 10 8 6 12 11 16 16 9 13 14 8
22 22 15 18 19 19 16 18 22 23 25 27 20 2 14 19 10 4 1 4 7 3 2 8 3 3 2 1 9 9 5 6 7 17 6 10 9 4 1 8 7 6 13 12 12 5 9
33 25 24 24 17 16 17 18 22 23 23 25 16 3 17 17 10 3 3 3 3 2 6 4 5 4 3 9 6 7 3 5 3 9 3 10 13 1 5 4 15 12 13 6 8 10 17
28 32 24 18 17 18 16 20 24 22 21 22 7 3 20 11 6 9 3 3 4 4 3 5 2 2 2 6 9 7 3 5 4 6 4 7 7 9 15 5 15 4 7 9 10 16 17
33 29 25 24 16 19 18 21 17 19 20 20 4 2 28 7 7 6 5 4 2 1 2 2 4 2 3 1 6 7 8 3 4 8 5 5 7 14 27 23 16 17 22 20 8 18 15
36 31 31 23 24 15 18 16 14 14 18 16 3 4 22 13 4 5 2 2 1 4 1 1 2 3 2 2 7 7 10 7 2 7 11 12 4 12 12 18 5 6 8 7 18 12 33
34 33 26 28 24 18 14 13 11 12 13 11 3 1 13 19 10 6 4 3 5 4 5 3 4 4 3 3 11 8 9 5 4 9 13 9 12 15 23 30 23 27 30 28 19 12 22
35 33 28 25 24 17 14 12 8 9 7 7 7 4 4 3 5 5 1 5 4 3 2 4 4 13 8 6 4 10 12 19 15 14 10 7 14 19 27 33 32 39 41 38 29 29 27
46 35 34 24 24 19 16 14 11 8 1 3 4 6 4 4 2 4 2 6 10 6 6 9 17 17 13 17 21 6 6 7 18 10 15 10 19 25 31 31 32 39 40 40 44 39 41
35 41 34 30 24 26 18 17 10 7 9 6 9 14 7 12 7 6 7 11 13 11 14 29 24 23 26 34 37 44 43 35 27 18 15 13 14 11 32 24 21 20 31 38 36 40 34
41 42 37 27 22 24 24 19 14 13 12 8 12 13 7 6 13 15 14 19 20 25 30 34 34 30 50 38 30 29 32 38 36 30 42 20 22 19 25 14 33 24 27 25 37 38 37
44 39 39 29 31 29 24 23 20 17 20 15 13 13 10 7 23 23 27 30 35 38 38 44 50 56 55 51 16 14 10 9 18 41 36 36 28 21 22 26 34 40 37 40 41 46 43
43 46 36 33 31 31 25 26 22 23 26 24 24 20 16 8 14 17 11 25 22 23 27 42 47 45 43 18 16 34 29 18 11 8 7 33 33 25 23 23 40 37 36 52 32 33 32
52 46 40 37 34 33 26 27 22 26 24 24 24 20 17 12 26 28 19 17 21 26 20 34 30 13 40 20 24 30 35 27 20 18 18 9 14 30 30 29 27 35 43 48 33 28 50
56 48 43 35 34 34 27 29 27 28 26 32 25 24 26 19 34 39 45 41 29 29 21 26 22 14 11 15 18 24 20 23 18 36 32 24 16 18 18 25 39 47 41 38 42 47 38
55 50 45 36 36 33 27 29 30 27 30 30 28 30 29 30 24 29 47 54 47 49 49 33 25 31 14 14 14 14 20 12 19 22 34 28 29 22 19 18 24 38 27 37 58 46 41
Wind_Direction_500mb
278 296 315 15 352 0 358 357 353 352 347 344 342 341 339 343 345 344 339 337 321 311 298 292 274 243 198 238 254 269 289 273 204 191 202 212 206 214 232 246 256 247 262 273 266 268 264
293 12 9 2 360 356 357 357 358 352 345 339 337 338 341 349 350 344 340 330 319 310 300 294 274 208 192 239 247 249 226 202 208 206 216 204 236 227 277 260 247 309 273 274 271 264 263
295 300 351 347 349 328 341 352 346 343 341 343 337 338 349 350 349 343 337 325 320 318 316 300 249 171 244 265 231 214 216 215 218 211 231 228 234 217 259 258 265 276 278 277 260 250 242
292 343 336 342 341 351 358 339 342 342 339 338 338 344 346 351 347 341 337 328 323 326 335 359 135 159 264 225 232 230 219 228 227 213 209 226 216 239 244 294 261 262 256 271 130 284 244
336 0 359 342 335 334 325 328 345 338 339 340 345 340 342 350 350 342 335 330 334 11 45 82 72 218 195 244 131 228 186 188 208 208 204 209 185 227 222 240 264 231 267 246 262 261 242
348 350 311 293 309 322 341 335 333 343 340 339 339 336 341 344 349 345 339 346 28 49 43 82 159 245 183 255 209 133 164 151 160 162 163 191 213 233 223 222 244 280 244 260 259 152 241
268 278 298 310 315 321 331 336 336 342 338 333 334 336 334 337 337 350 1 29 306 261 37 243 216 284 312 309 255 198 177 165 158 203 229 202 239 230 251 232 263 288 284 279 280 284 267
276 287 312 308 323 333 348 337 332 338 334 338 336 335 330 331 331 352 16 109 118 229 251 326 233 310 270 254 249 238 202 234 219 239 189 211 245 265 292 283 264 263 269 274 283 293 284
316 308 318 318 324 323 324 349 341 328 339 342 338 337 336 333 323 352 32 60 45 60 259 159 184 10 341 78 249 204 221 256 244 242 225 247 259 22 301 246 254 254 260 276 280 299 289
254 243 264 269 289 308 317 323 321 338 350 348 342 341 343 346 341 359 7 8 58 64 238 137 152 110 338 298 221 275 218 268 246 281 271 263 275 256 253 257 265 278 288 285 280 290 275
262 249 275 282 287 283 280 300 323 350 354 352 345 346 351 6 12 15 337 359 73 61 280 61 58 335 305 281 337 138 239 248 277 275 276 352 257 244 246 256 230 257 333 293 287 275 287
250 264 279 302 298 328 319 349 340 353 355 351 345 346 2 9 6 1 13 88 72 76 227 74 15 357 333 41 14 329 275 243 288 286 247 264 276 274 265 271 235 277 280 259 271 268 254
243 265 272 300 306 308 314 327 330 348 355 354 346 346 10 12 356 3 49 80 351 223 12 19 355 350 329 342 313 350 312 357 330 315 250 278 236 244 255 260 219 217 252 283 228 207 255
252 271 264 277 317 301 318 333 345 350 350 354 348 14 17 7 357 20 106 222 232 105 25 320 332 321 47 2 33 339 276 230 59 335 295 285 265 187 148 258 318 217 201 228 274 268 309
243 251 266 267 295 323 309 314 328 344 346 351 351 25 12 358 349 25 165 218 355 79 326 333 278 138 123 42 335 329 64 33 34 15 290 316 235 82 293 319 292 166 223 268 275 218 259
229 241 248 262 275 313 323 313 321 339 345 350 356 175 358 352 354 69 52 111 91 15 333 306 316 346 321 3 330 353 246 46 93 28 9 359 286 245 15 289 232 257 337 231 209 257 255
242 233 247 251 266 286 301 311 325 331 346 352 29 243 349 348 69 61 90 70 165 103 16 334 327 269 351 353 320 319 25 95 12 6 339 331 264 246 314 229 353 311 262 249 292 264 262
227 231 241 256 252 273 297 310 319 335 352 7 43 269 357 74 44 41 102 122 359 160 338 227 254 218 259 218 268 254 248 359 22 358 348 21 285 268 263 278 304 285 295 318 280 256 252
230 240 233 242 258 272 292 308 324 345 8 14 60 348 17 66 81 81 68 123 229 220 248 255 233 285 142 279 294 267 268 136 90 14 19 352 275 299 261 224 115 356 19 355 344 251 255
227 231 241 229 247 262 267 286 308 339 6 19 53 42 32 59 63 105 145 177 162 194 276 251 303 264 234 245 233 281 259 162 209 296 326 287 254 254 265 309 318 294 292 291 295 275 305
222 229 242 232 242 253 261 258 281 335 5 63 58 69 71 85 77 96 7 169 215 224 215 231 255 238 224 243 249 240 260 272 260 252 253 241 253 247 263 276 282 286 286 289 275 265 255
221 226 233 241 245 242 251 239 266 285 182 124 117 148 97 123 302 210 204 211 230 225 211 229 226 271 279 227 230 238 222 216 262 221 229 203 261 268 270 276 276 274 273 273 273 271 262
223 218 232 236 247 241 245 237 255 229 215 185 160 149 145 158 195 223 224 217 234 251 250 252 271 277 267 259 268 264 265 261 248 240 215 230 246 222 267 286 305 274 259 261 261 259 260
221 220 224 231 226 222 235 242 237 238 233 215 182 155 159 193 210 227 251 247 260 257 259 269 270 266 261 274 295 264 262 255 245 240 226 233 231 246 266 254 260 271 272 281 271 271 270
214 217 220 230 223 224 243 236 232 232 233 238 214 187 177 238 227 250 252 260 273 274 272 269 267 264 274 278 267 246 214 235 231 235 226 222 231 249 250 250 267 275 276 272 267 264 267
219 218 224 221 222 227 241 230 232 225 225 231 240 232 227 243 208 252 264 279 283 283 278 265 267 265 264 269 233 247 254 253 217 235 248 232 227 236 244 245 259 264 271 268 276 272 266
217 216 219 220 231 230 232 227 240 208 220 236 252 237 241 271 265 256 245 263 278 280 276 285 284 261 240 241 243 247 251 244 229 222 216 171 213 225 233 248 254 260 263 274 253 265 265
209 215 219 225 226 227 232 224 230 222 226 237 247 245 246 251 258 258 263 263 266 262 271 276 306 224 233 236 251 262 255 225 230 227 220 204 201 221 230 248 259 255 257 248 248 259 269
209 213 218 219 223 228 233 226 217 219 231 236 249 259 249 251 250 260 272 275 265 262 265 263 255 285 268 272 261 269 246 204 212 232 229 239 227 233 210 232 253 263 256 267 243 255 262
Wind_Speed_850mb
12 18 14 11 11 13 15 19 22 24 28 31 31 30 27 27 26 24 24 24 23 21 20 21 15 10 7 10 11 13 8 4 5 13 11 13 18 20 15 14 23 27 33 40 39 37 46
21 6 7 8 14 17 18 20 24 28 28 32 29 28 27 24 24 24 23 22 21 21 19 16 12 10 7 13 12 9 6 5 7 13 16 16 11 17 13 14 19 11 21 31 36 43 47
12 4 6 7 10 18 15 22 22 27 30 32 30 26 25 24 24 24 23 21 16 16 14 11 7 10 11 5 6 6 6 7 9 13 11 17 14 13 6 13 19 24 30 32 39 47 34
6 3 10 13 15 19 22 21 25 28 29 31 29 26 24 25 24 24 24 21 15 9 8 3 5 7 6 8 7 7 8 8 9 10 12 12 17 11 13 11 10 12 20 17 8 5 30
7 7 12 20 19 22 15 24 24 28 29 31 25 25 24 25 22 23 23 16 10 6 4 6 7 6 2 3 1 6 11 5 6 9 10 7 10 15 9 12 15 18 19 25 23 13 13
11 11 12 13 14 22 19 20 24 27 32 33 26 25 25 27 24 22 18 7 3 4 7 7 3 7 4 2 3 5 6 9 5 12 9 10 11 14 14 17 16 18 24 24 23 5 12
8 15 15 11 17 19 14 21 26 28 31 31 26 25 26 25 22 18 11 3 2 3 4 5 2 6 1 4 3 2 5 4 8 12 12 16 14 19 18 26 32 32 26 31 32 30 22
14 14 11 13 18 17 16 17 24 26 30 30 27 24 25 23 16 16 7 5 3 4 3 3 1 3 6 9 6 6 7 8 13 16 9 10 24 21 19 13 20 25 30 34 34 21 19
9 11 15 19 19 22 23 22 25 28 30 26 26 25 24 20 10 14 15 11 6 5 5 2 1 2 2 0 4 5 6 7 17 18 20 24 3 4 5 13 17 23 27 30 33 37 33
15 12 16 16 18 16 19 19 25 28 26 26 26 25 21 17 4 13 10 12 6 7 4 6 5 2 4 4 6 4 5 5 6 13 11 20 9 10 19 24 20 27 20 25 28 20 11
20 17 22 15 24 27 25 26 28 23 26 27 27 24 18 12 7 9 10 6 6 5 7 8 5 3 8 7 5 3 5 4 14 8 6 4 6 10 14 14 7 9 9 13 18 22 25
17 17 17 11 14 17 14 19 22 21 24 26 29 23 14 10 13 14 7 5 5 1 9 2 5 11 6 2 3 7 2 4 7 11 18 34 23 12 19 7 15 5 13 15 13 13 13
16 15 12 11 14 16 15 17 23 23 26 28 31 18 11 15 13 9 4 4 3 7 6 7 7 12 14 9 3 8 5 4 9 10 10 8 23 6 9 13 17 15 11 6 10 8 11
21 20 14 13 12 16 15 16 22 23 26 27 26 7 12 17 13 8 5 2 7 3 1 7 6 12 3 14 4 10 6 11 16 14 13 12 10 8 6 12 11 16 16 9 13 14 8
22 22 15 18 19 19 16 18 22 23 25 27 20 2 14 19 10 4 1 4 7 3 2 8 3 3 2 1 9 9 5 6 7 17 6 10 9 4 1 8 7 6 13 12 12 5 9
33 25 24 24 17 16 17 18 22 23 23 25 16 3 17 17 10 3 3 3 3 2 6 4 5 4 3 9 6 7 3 5 3 9 3 10 13 1 5 4 15 12 13 6 8 10 17
28 32 24 18 17 18 16 20 24 22 21 22 7 3 20 11 6 9 3 3 4 4 3 5 2 2 2 6 9 7 3 5 4 6 4 7 7 9 15 5 15 4 7 9 10 16 17
33 29 25 24 16 19 18 21 17 19 20 20 4 2 28 7 7 6 5 4 2 1 2 2 4 2 3 1 6 7 8 3 4 8 5 5 7 14 27 23 16 17 22 20 8 18 15
36 31 31 23 24 15 18 16 14 14 18 16 3 4 22 13 4 5 2 2 1 4 1 1 2 3 2 2 7 7 10 7 2 7 11 12 4 12 12 18 5 6 8 7 18 12 33
34 33 26 28 24 18 14 13 11 12 13 11 3 1 13 19 10 6 4 3 5 4 5 3 4 4 3 3 11 8 9 5 4 9 13 9 12 15 23 30 23 27 30 28 19 12 22
35 33 28 25 24 17 14 12 8 9 7 7 7 4 4 3 5 5 1 5 4 3 2 4 4 13 8 6 4 10 12 19 15 14 10 7 14 19 27 33 32 39 41 38 29 29 27
46 35 34 24 24 19 16 14 11 8 1 3 4 6 4 4 2 4 2 6 10 6 6 9 17 17 13 17 21 6 6 7 18 10 15 10 19 25 31 31 32 39 40 40 44 39 41
35 41 34 30 24 26 18 17 10 7 9 6 9 14 7 12 7 6 7 11 13 11 14 29 24 23 26 34 37 44 43 35 27 18 15 13 14 11 32 24 21 20 31 38 36 40 34
41 42 37 27 22 24 24 19 14 13 12 8 12 13 7 6 13 15 14 19 20 25 30 34 34 30 50 38 30 29 32 38 36 30 42 20 22 19 25 14 33 24 27 25 37 38 37
44 39 39 29 31 29 24 23 20 17 20 15 13 13 10 7 23 23 27 30 35 38 38 44 50 56 55 51 16 14 10 9 18 41 36 36 28 21 22 26 34 40 37 40 41 46 43
43 46 36 33 31 31 25 26 22 23 26 24 24 20 16 8 14 17 11 25 22 23 27 42 47 45 43 18 16 34 29 18 11 8 7 33 33 25 23 23 40 37 36 52 32 33 32
52 46 40 37 34 33 26 27 22 26 24 24 24 20 17 12 26 28 19 17 21 26 20 34 30 13 40 20 24 30 35 27 20 18 18 9 14 30 30 29 27 35 43 48 33 28 50
56 48 43 35 34 34 27 29 27 28 26 32 25 24 26 19 34 39 45 41 29 29 21 26 22 14 11 15 18 24 20 23 18 36 32 24 16 18 18 25 39 47 41 38 42 47 38
55 50 45 36 36 33 27 29 30 27 30 30 28 30 29 30 24 29 47 54 47 49 49 33 25 31 14 14 14 14 20 12 19 22 34 28 29 22 19 18 24 38 27 37 58 46 41
Wind_Direction_850mb
278 296 315 15 352 0 358 357 353 352 347 344 342 341 339 343 345 344 339 337 321 311 298 292 274 243 198 238 254 269 289 273 204 191 202 212 206 214 232 246 256 247 262 273 266 268 264
293 12 9 2 360 356 357 357 358 352 345 339 337 338 341 349 350 344 340 330 319 310 300 294 274 208 192 239 247 249 226 202 208 206 216 204 236 227 277 260 247 309 273 274 271 264 263
295 300 351 347 349 328 341 352 346 343 341 343 337 338 349 350 349 343 337 325 320 318 316 300 249 171 244 265 231 214 216 215 218 211 231 228 234 217 259 258 265 276 278 277 260 250 242
292 343 336 342 341 351 358 339 342 342 339 338 338 344 346 351 347 341 337 328 323 326 335 359 135 159 264 225 232 230 219 228 227 213 209 226 216 239 244 294 261 262 256 271 130 284 244
336 0 359 342 335 334 325 328 345 338 339 340 345 340 342 350 350 342 335 330 334 11 45 82 72 218 195 244 131 228 186 188 208 208 204 209 185 227 222 240 264 231 267 246 262 261 242
348 350 311 293 309 322 341 335 333 343 340 339 339 336 341 344 349 345 339 346 28 49 43 82 159 245 183 255 209 133 164 151 160 162 163 191 213 233 223 222 244 280 244 260 259 152 241
268 278 298 310 315 321 331 336 336 342 338 333 334 336 334 337 337 350 1 29 306 261 37 243 216 284 312 309 255 198 177 165 158 203 229 202 239 230 251 232 263 288 284 279 280 284 267
276 287 312 308 323 333 348 337 332 338 334 338 336 335 330 331 331 352 16 109 118 229 251 326 233 310 270 254 249 238 202 234 219 239 189 211 245 265 292 283 264 263 269 274 283 293 284
316 308 318 318 324 323 324 349 341 328 339 342 338 337 336 333 323 352 32 60 45 60 259 159 184 10 341 78 249 204 221 256 244 242 225 247 259 22 301 246 254 254 260 276 280 299 289
254 243 264 269 289 308 317 323 321 338 350 348 342 341 343 346 341 359 7 8 58 64 238 137 152 110 338 298 221 275 218 268 246 281 271 263 275 256 253 257 265 278 288 285 280 290 275
262 249 275 282 287 283 280 300 323 350 354 352 345 346 351 6 12 15 337 359 73 61 280 61 58 335 305 281 337 138 239 248 277 275 276 352 257 244 246 256 230 257 333 293 287 275 287
250 264 279 302 298 328 319 349 340 353 355 351 345 346 2 9 6 1 13 88 72 76 227 74 15 357 333 41 14 329 275 243 288 286 247 264 276 274 265 271 235 277 280 259 271 268 254
243 265 272 300 306 308 314 327 330 348 355 354 346 346 10 12 356 3 49 80 351 223 12 19 355 350 329 342 313 350 312 357 330 315 250 278 236 244 255 260 219 217 252 283 228 207 255
252 271 264 277 317 301 318 333 345 350 350 354 348 14 17 7 357 20 106 222 232 105 25 320 332 321 47 2 33 339 276 230 59 335 295 285 265 187 148 258 318 217 201 228 274 268 309
243 251 266 267 295 323 309 314 328 344 346 351 351 25 12 358 349 25 165 218 355 79 326 333 278 138 123 42 335 329 64 33 34 15 290 316 235 82 293 319 292 166 223 268 275 218 259
229 241 248 262 275 313 323 313 321 339 345 350 356 175 358 352 354 69 52 111 91 15 333 306 316 346 321 3 330 353 246 46 93 28 9 359 286 245 15 289 232 257 337 231 209 257 255
242 233 247 251 266 286 301 311 325 331 346 352 29 243 349 348 69 61 90 70 165 103 16 334 327 269 351 353 320 319 25 95 12 6 339 331 264 246 314 229 353 311 262 249 292 264 262
227 231 241 256 252 273 297 310 319 335 352 7 43 269 357 74 44 41 102 122 359 160 338 227 254 218 259 218 268 254 248 359 22 358 348 21 285 268 263 278 304 285 295 318 280 256 252
230 240 233 242 258 272 292 308 324 345 8 14 60 348 17 66 81 81 68 123 229 220 248 255 233 285 142 279 294 267 268 136 90 14 19 352 275 299 261 224 115 356 19 355 344 251 255
227 231 241 229 247 262 267 286 308 339 6 19 53 42 32 59 63 105 145 177 162 194 276 251 303 264 234 245 233 281 259 162 209 296 326 287 254 254 265 309 318 294 292 291 295 275 305
222 229 242 232 242 253 261 258 281 335 5 63 58 69 71 85 77 96 7 169 215 224 215 231 255 238 224 243 249 240 260 272 260 252 253 241 253 247 263 276 282 286 286 289 275 265 255
221 226 233 241 245 242 251 239 266 285 182 124 117 148 97 123 302 210 204 211 230 225 211 229 226 271 279 227 230 238 222 216 262 221 229 203 261 268 270 276 276 274 273 273 273 271 262
223 218 232 236 247 241 245 237 255 229 215 185 160 149 145 158 195 223 224 217 234 251 250 252 271 277 267 259 268 264 265 261 248 240 215 230 246 222 267 286 305 274 259 261 261 259 260
221 220 224 231 226 222 235 242 237 238 233 215 182 155 159 193 210 227 251 247 260 257 259 269 270 266 261 274 295 264 262 255 245 240 226 233 231 246 266 254 260 271 272 281 271 271 270
214 217 220 230 223 224 243 236 232 232 233 238 214 187 177 238 227 250 252 260 273 274 272 269 267 264 274 278 267 246 214 235 231 235 226 222 231 249 250 250 267 275 276 272 267 264 267
219 218 224 221 222 227 241 230 232 225 225 231 240 232 227 243 208 252 264 279 283 283 278 265 267 265 264 269 233 247 254 253 217 235 248 232 227 236 244 245 259 264 271 268 276 272 266
217 216 219 220 231 230 232 227 240 208 220 236 252 237 241 271 265 256 245 263 278 280 276 285 284 261 240 241 243 247 251 244 229 222 216 171 213 225 233 248 254 260 263 274 253 265 265
209 215 219 225 226 227 232 224 230 222 226 237 247 245 246 251 258 258 263 263 266 262 271 276 306 224 233 236 251 262 255 225 230 227 220 204 201 221 230 248 259 255 257 248 248 259 269
209 213 218 219 223 228 233 226 217 219 231 236 249 259 249 251 250 260 272 275 265 262 265 263 255 285 268 272 261 269 246 204 212 232 229 239 227 233 210 232 253 263 256 267 243 255 262